Regional Weather Roundup
Issued by NWS

Home | Current Version | Previous Version | Text Only | Print | Product List | Glossary On
Versions: 1 2 3 4 5 6 7 8 9 10 11 12 13 14 15 16 17 18 19 20 21 22 23 24 25 26 27 28 29 30 31 32 33 34 35 36 37 38 39 40 41 42 43 44 45 46 47 48 49 50
000
ASUS43 KBIS 210902
RWRND

NORTH DAKOTA REGIONAL WEATHER ROUNDUP
NATIONAL WEATHER SERVICE BISMARCK ND
300 AM CST SUN JAN 21 2018

NOTE: "FAIR" INDICATES FEW OR NO CLOUDS BELOW 12,000 FEET WITH NO
SIGNIFICANT WEATHER AND/OR OBSTRUCTIONS TO VISIBILITY.


NDZ001>003-009>011-017-211000-
NORTHWEST NORTH DAKOTA

CITY           SKY/WX    TMP DP  RH WIND       PRES   REMARKS
WILLISTON      CLEAR      9   6  88 CALM      29.98R
MINOT          CLEAR     20  16  84 SW5       29.97R WCI  13
MINOT AFB      CLEAR     14  11  89 NW5       29.96R WCI   6
$$

NDZ018>021-031>035-040>046-211000-
SOUTHWEST NORTH DAKOTA

CITY           SKY/WX    TMP DP  RH WIND       PRES   REMARKS
BISMARCK       MOCLDY    18  16  92 CALM      30.00R
DICKINSON      PTCLDY    21  16  81 W10       29.94F WCI  10
GARRISON         N/A     13  11  92 W3        29.98R
HETTINGER ARPT CLOUDY    23  17  78 W3        29.98R
$$

NDZ004>008-012>016-024-026-027-054-211000-
NORTHEAST NORTH DAKOTA

CITY           SKY/WX    TMP DP  RH WIND       PRES   REMARKS
GRAND FORKS    FAIR      19  17  92 W8        29.98R WCI   9
GRND FRKS AFB  FAIR      21  17  86 NW7       29.99R WCI  12
DEVILS LAKE    FAIR      15  13  91 NW6       29.98R WCI   6
$$

NDZ022-023-025-028>030-036>039-047>053-211000-
SOUTHEAST NORTH DAKOTA

CITY           SKY/WX    TMP DP  RH WIND       PRES   REMARKS
FARGO          FAIR      26  23  88 NW5       29.97S
JAMESTOWN      PTCLDY    22  19  89 NW7       29.97R WCI  13
$$





USA.gov is the U.S. government's official web portal to all federal, state and local government web resources and services.